RH
81 82 82 84 85 85 84 85 85 83 82 83 85 86 89 91 88 41 13 18 20 55 47 12 6 5 4 6 10 10 29 34 11 12 11 10 13 10 10 16 18 18 21 26 30
81 82 81 82 83 84 85 85 85 85 85 85 86 87 88 90 42 15 26 54 48 52 8 8 5 4 5 9 10 21 47 32 8 8 9 8 9 10 16 27 38 24 25 27 30
81 81 80 80 79 83 84 85 85 86 86 85 85 86 88 76 30 16 50 51 47 38 13 6 5 5 8 9 10 23 42 25 8 7 7 8 9 9 14 30 57 33 30 30 32
81 81 81 81 81 81 83 84 85 86 86 86 86 86 86 44 21 14 53 53 56 18 11 7 6 7 9 11 9 17 14 8 7 6 7 8 7 8 10 17 26 25 28 29 32
81 82 81 81 82 82 82 83 86 87 87 88 88 86 48 23 15 15 58 42 15 12 6 6 6 6 8 9 9 10 8 7 7 7 8 8 8 10 9 14 14 22 28 30 30
81 82 83 83 84 85 86 86 87 87 88 89 88 88 33 13 12 10 10 10 11 6 6 6 6 6 8 8 9 9 9 8 8 8 8 8 12 9 12 11 16 22 29 29 29
82 84 84 82 82 84 85 86 86 87 89 83 80 40 16 8 9 10 8 7 5 5 6 6 7 7 6 8 7 8 9 8 8 8 7 10 15 13 10 13 17 20 24 27 31
81 83 85 85 85 84 86 87 84 85 87 78 79 32 14 6 8 9 7 6 5 4 6 7 7 6 6 7 7 8 8 10 7 8 7 6 23 10 10 13 16 18 21 25 30
82 83 85 86 87 88 87 86 82 84 83 78 42 24 10 20 6 8 7 6 5 4 6 6 6 7 6 6 7 7 9 8 10 7 7 7 9 10 9 12 17 21 23 25 32
84 85 86 87 88 88 86 82 66 71 63 34 22 17 10 8 4 7 6 6 5 5 7 8 7 7 5 5 7 7 6 5 9 6 8 7 7 6 9 10 17 23 26 29 33
84 85 86 87 88 88 56 15 23 28 18 11 9 5 6 6 5 8 7 6 5 5 8 7 7 6 5 5 6 6 7 6 6 5 7 8 8 7 7 8 12 29 32 33 35
83 86 86 87 88 85 57 16 11 10 12 8 8 7 5 7 8 6 6 7 8 8 6 8 7 5 5 6 6 5 6 6 6 5 8 8 8 7 6 10 12 22 34 30 33
85 86 87 87 87 50 14 11 8 7 10 6 4 5 5 6 8 6 7 6 8 7 7 8 6 6 6 5 5 5 6 6 8 7 7 8 9 10 7 10 11 10 29 28 33
84 85 87 91 49 14 8 10 7 8 12 6 5 5 4 5 7 5 6 6 8 8 7 7 5 7 7 6 6 8 6 6 6 8 10 7 12 15 11 13 14 15 19 26 35
84 85 87 89 33 13 12 8 8 10 17 4 5 3 3 6 5 6 6 6 9 9 9 9 7 7 7 6 5 7 8 9 7 9 9 8 8 19 18 11 15 14 19 22 34
84 85 87 34 38 15 7 7 10 16 14 7 6 6 4 5 5 6 8 6 8 10 9 9 7 6 6 5 6 6 8 8 8 8 12 12 8 12 19 25 12 13 20 28 31
84 85 79 32 14 8 8 11 16 16 6 6 7 5 5 5 5 7 10 11 13 17 16 10 8 6 6 8 8 8 10 14 14 13 16 28 16 20 10 12 11 15 21 25 29
84 87 56 22 10 10 11 14 23 9 7 4 5 5 5 5 5 7 10 12 10 10 10 12 11 8 6 8 9 10 11 14 24 14 24 19 31 22 11 11 12 12 21 25 27
88 26 22 16 16 12 14 18 16 11 5 6 6 7 6 5 5 6 10 10 10 10 15 11 11 6 6 6 7 9 11 7 12 12 11 9 15 15 12 11 14 15 22 24 28
48 19 13 11 13 13 15 22 11 6 6 6 8 7 8 6 6 7 10 8 9 8 8 11 14 7 7 6 7 8 7 11 12 24 23 12 26 56 48 61 17 19 23 27 30
40 21 16 10 12 14 17 14 11 7 6 7 8 8 7 7 6 7 9 8 7 7 8 8 12 10 8 10 10 9 12 10 9 13 17 20 38 50 55 64 22 20 21 24 27
32 22 14 9 14 11 12 10 16 7 6 7 7 8 10 8 8 8 8 8 6 6 9 9 10 15 10 7 6 7 9 11 16 24 16 18 20 24 30 22 19 16 19 23 26
38 19 13 11 13 10 10 7 6 8 8 7 7 7 8 12 13 10 9 7 6 7 17 13 14 15 15 11 8 9 8 9 12 22 28 30 63 41 19 17 14 18 21 33 35
36 17 16 13 12 16 16 10 8 8 7 7 7 6 9 12 12 17 9 7 6 7 46 26 18 18 13 16 18 16 11 10 11 17 17 14 28 27 41 44 59 29 31 36 41
31 22 19 13 11 14 16 13 11 12 8 8 9 8 11 15 13 15 11 8 7 32 12 14 25 17 12 10 10 10 11 9 11 12 15 14 22 37 54 62 72 60 41 41 45
24 28 26 18 21 16 22 17 13 11 10 12 13 9 9 13 13 13 11 12 11 9 15 16 27 20 18 12 10 10 8 8 8 8 10 10 15 33 57 47 58 52 38 48 50
22 22 25 32 18 21 18 16 15 14 9 11 12 11 11 12 12 16 17 20 22 24 24 28 25 28 26 15 14 17 11 9 9 9 9 13 22 49 72 81 71 37 40 41 45
Wind_Speed
17 16 16 15 15 14 15 15 14 14 15 16 15 12 12 14 18 7 7 2 1 2 4 14 13 14 16 16 20 9 4 9 6 16 13 11 11 10 4 12 10 10 14 21 20
17 17 17 17 17 15 15 15 15 15 14 15 15 14 12 11 9 11 2 1 1 3 9 11 10 10 12 15 4 13 7 9 13 12 7 11 2 3 17 22 17 7 18 20 19
17 17 17 17 18 17 17 16 16 15 15 15 15 13 12 12 10 6 3 3 4 3 11 14 12 12 15 12 8 10 11 17 2 6 6 12 4 2 13 15 28 14 16 19 18
18 18 18 18 18 18 17 17 17 17 16 17 15 13 10 7 2 6 4 3 3 8 15 12 9 11 13 6 1 11 23 6 9 3 6 10 8 9 7 15 29 20 18 17 17
19 19 19 20 19 19 19 19 18 18 17 16 14 11 9 9 4 10 6 6 7 13 12 8 9 10 13 6 3 10 5 0 3 4 5 5 9 6 5 18 14 19 18 16 15
19 20 20 20 19 19 19 19 18 17 16 14 12 9 7 11 9 12 11 9 13 8 4 8 9 11 9 5 8 6 6 9 8 8 5 6 17 1 9 4 14 17 18 16 16
21 20 20 21 22 21 20 20 19 17 14 12 8 7 10 7 1 10 8 10 1 10 6 2 8 10 8 7 11 5 11 12 15 11 5 15 14 13 4 7 16 13 12 16 15
21 21 22 22 22 22 22 20 20 15 13 9 6 7 8 3 3 7 10 5 5 6 9 4 8 12 13 12 8 11 14 14 15 8 6 6 13 7 4 11 11 10 11 11 14
20 21 22 22 22 22 22 22 19 12 13 10 8 7 11 3 9 11 9 9 6 7 5 6 8 13 14 10 12 16 13 15 6 7 4 4 8 11 6 6 8 8 6 10 12
20 20 21 22 23 22 26 18 5 12 9 9 10 10 10 9 9 13 10 7 6 6 8 9 8 12 11 11 13 12 11 10 17 3 9 6 12 4 9 4 11 13 8 9 11
21 22 22 23 23 20 16 6 6 6 9 11 7 11 7 5 6 9 10 9 10 6 11 12 9 12 16 11 11 10 13 12 9 1 4 9 13 2 6 3 5 16 11 10 11
22 23 23 24 24 22 8 7 9 7 10 15 18 14 1 5 10 12 12 11 11 11 13 10 11 16 3 7 8 10 10 10 10 3 3 11 12 12 5 7 1 15 15 12 13
22 23 24 26 27 10 11 11 8 8 8 14 17 18 11 11 13 15 16 16 11 12 14 14 1 6 3 5 8 11 11 11 6 10 9 14 15 17 12 11 7 2 17 11 14
22 23 23 28 7 9 10 4 7 5 7 13 14 13 17 12 15 14 17 14 9 13 14 10 13 2 5 9 11 13 2 1 7 10 12 1 9 7 13 12 12 11 10 13 15
22 22 23 10 12 7 8 6 8 6 7 12 17 11 14 15 4 15 16 17 16 11 9 12 12 5 9 10 4 11 4 8 9 12 14 15 9 9 8 8 15 13 13 13 17
22 21 23 4 8 12 10 8 7 7 11 9 10 12 17 16 17 15 16 18 11 13 10 16 2 7 10 8 7 11 6 10 12 12 13 14 13 6 8 8 1 11 15 18 14
23 20 12 10 3 10 8 7 6 10 15 12 16 15 20 17 21 12 18 17 14 10 13 12 13 10 7 8 8 10 9 9 10 12 8 8 14 10 10 12 6 10 16 15 15
27 22 8 9 9 8 7 8 11 13 23 8 10 18 20 19 20 17 16 16 19 17 12 12 14 19 12 11 11 12 10 8 14 14 4 7 7 14 10 11 11 4 18 18 16
32 5 6 6 11 8 7 11 11 18 11 8 8 8 17 20 13 19 19 18 18 19 16 11 10 13 14 8 11 11 11 13 13 15 15 14 6 10 5 9 12 13 18 17 17
7 10 9 11 8 6 8 16 18 7 9 3 8 12 15 19 19 20 17 18 19 20 17 12 5 9 11 4 8 12 11 9 8 13 15 10 6 5 4 31 10 13 16 15 16
5 6 7 7 7 6 11 17 18 9 3 4 12 17 15 13 14 14 13 17 19 18 16 14 5 9 11 9 11 8 11 10 14 12 13 13 3 9 13 21 12 12 15 15 16
6 5 7 8 8 8 13 17 18 10 5 7 7 15 10 13 15 14 12 14 10 11 16 12 7 11 13 11 14 13 13 11 7 11 12 13 10 18 17 17 11 13 12 15 14
6 3 5 8 8 11 15 21 23 10 8 7 8 14 4 11 2 7 12 11 9 4 7 3 9 10 12 12 15 8 11 14 14 11 13 4 5 16 9 5 0 12 12 12 13
7 5 6 6 11 16 15 19 16 5 15 9 11 11 8 9 8 8 4 6 4 4 8 6 10 8 12 2 1 16 11 13 15 10 12 12 2 8 13 19 26 17 12 11 13
6 5 6 7 11 14 14 11 12 12 10 9 7 10 9 8 13 9 11 6 7 1 4 4 9 12 15 18 17 15 16 17 14 16 15 16 6 9 6 19 14 33 10 11 12
7 8 12 10 5 9 11 11 9 17 11 14 11 11 12 9 11 7 11 15 5 10 7 11 9 12 16 19 21 19 19 14 16 18 15 15 10 7 10 5 21 25 11 11 12
9 10 7 6 6 6 10 9 12 16 10 6 3 13 13 7 7 10 11 7 9 7 4 7 7 8 14 16 15 16 16 14 15 15 17 16 5 21 20 14 26 12 13 12 14
Wind_Direction
10 5 359 356 350 350 347 341 335 338 333 328 324 324 319 315 300 223 256 57 38 60 311 274 270 267 267 265 267 266 74 313 114 70 94 88 154 99 105 114 79 61 100 123 137
7 1 358 352 348 345 344 337 335 334 329 323 318 318 315 320 267 237 105 236 78 18 261 263 272 262 263 264 45 74 37 276 34 43 31 117 12 84 98 41 351 84 107 127 141
3 358 354 351 347 344 340 335 334 328 328 319 316 315 313 311 267 91 202 247 294 241 268 289 288 286 271 266 200 100 180 239 149 16 10 346 72 142 116 103 197 221 139 144 146
358 354 350 349 346 341 336 334 330 328 325 318 315 315 315 258 356 90 175 228 257 266 273 263 258 256 266 231 348 168 192 310 55 73 338 8 344 331 50 128 190 178 145 149 155
355 351 349 345 342 338 335 332 328 324 319 313 310 321 284 234 68 138 177 198 217 240 259 263 263 251 266 279 67 280 93 281 216 275 336 315 284 62 306 104 111 132 145 158 164
352 348 345 341 339 334 330 329 325 320 316 311 306 320 255 265 107 152 173 187 252 247 237 256 305 357 307 324 285 14 345 303 291 290 252 9 341 20 99 103 123 138 156 171 171
350 345 342 337 336 331 327 325 320 315 307 313 318 290 271 270 101 164 193 230 288 264 269 312 321 282 302 256 238 286 273 257 235 229 311 66 31 293 60 144 137 158 180 172 168
349 343 338 335 333 328 322 319 312 306 297 301 305 272 274 86 291 178 213 222 234 245 284 351 274 284 286 294 297 251 261 262 258 144 121 281 185 119 126 159 158 168 174 167 157
346 341 335 332 327 325 320 311 299 292 282 284 258 238 271 144 208 204 217 233 200 235 246 299 271 266 270 231 248 229 249 251 51 118 329 288 326 137 143 105 146 142 168 160 149
342 338 334 329 325 326 319 285 259 297 226 248 265 271 229 229 179 194 202 264 227 225 241 240 244 249 222 244 253 326 229 240 150 174 149 263 267 12 133 169 159 146 156 157 149
341 336 332 328 322 326 331 290 218 181 227 253 291 241 147 80 106 220 189 216 231 235 240 201 235 236 241 230 1 340 318 331 339 340 11 285 289 269 239 102 201 132 154 163 170
338 334 331 326 319 316 282 265 61 333 295 264 238 257 242 158 196 213 184 214 209 229 221 234 230 253 21 13 335 303 288 288 275 216 205 275 271 275 276 132 26 153 153 178 171
335 332 331 325 317 285 247 305 338 318 264 264 230 226 211 230 248 193 190 214 207 225 232 247 222 38 31 295 263 263 268 278 338 332 276 254 264 243 227 141 160 242 146 173 154
333 331 330 327 296 336 259 41 295 336 270 247 191 218 210 207 227 232 187 217 241 235 238 232 262 185 241 240 248 268 319 5 297 276 282 279 276 192 154 182 165 158 152 162 146
331 329 324 334 315 265 14 316 330 264 266 190 169 184 187 196 217 199 176 220 238 216 258 226 238 189 243 243 261 267 6 306 288 282 275 274 261 84 203 180 162 174 146 153 145
327 326 327 224 212 257 307 308 271 234 235 145 140 194 192 204 236 174 182 226 231 266 216 272 252 259 232 233 256 284 309 275 267 261 261 269 253 184 115 139 339 125 127 127 142
322 316 303 307 221 350 318 264 221 238 242 167 170 197 205 191 219 181 188 202 218 214 234 219 235 229 246 235 197 252 256 272 260 239 272 38 323 282 109 113 98 114 129 132 147
317 311 226 243 301 266 268 224 238 214 247 217 188 190 204 199 212 182 205 209 218 226 247 216 212 207 187 238 264 208 246 277 303 297 114 195 223 250 117 121 124 121 132 141 147
312 210 226 231 221 256 243 223 219 254 245 197 207 240 201 211 196 208 214 215 213 225 246 277 227 167 193 196 224 253 255 280 292 278 274 276 275 82 49 147 130 144 135 154 145
306 279 245 149 180 219 230 240 236 268 335 346 229 217 237 216 189 201 199 222 225 215 231 263 265 162 167 231 259 273 297 282 237 261 269 270 90 173 354 322 141 133 148 151 144
245 229 115 164 177 209 225 229 243 267 313 293 272 289 243 214 210 219 213 218 216 226 206 240 251 274 151 191 257 196 231 239 268 289 303 291 191 182 131 241 158 145 143 147 150
291 256 146 174 200 220 232 242 262 274 150 265 281 293 323 298 209 220 242 243 193 248 188 224 243 241 256 215 228 239 287 303 251 261 251 280 351 167 201 229 154 146 148 151 155
266 206 161 205 221 227 226 242 245 249 258 239 253 263 246 318 2 254 254 40 42 183 39 260 229 256 252 272 266 220 252 271 270 278 277 295 262 308 281 360 201 136 144 138 142
275 204 151 210 260 287 281 217 230 210 283 242 264 265 237 248 278 297 263 102 64 343 5 318 286 227 268 19 239 292 275 256 267 266 273 258 106 223 33 33 355 319 140 150 136
248 306 13 185 216 247 266 289 203 233 220 287 231 270 244 243 215 227 277 228 150 186 281 267 270 289 283 284 285 247 227 237 228 245 251 278 133 117 107 89 353 302 145 149 139
316 342 344 285 317 280 229 258 275 226 197 223 228 247 246 255 264 228 238 274 160 196 216 248 244 256 278 282 278 268 264 260 273 288 286 255 263 143 102 121 205 250 146 158 151
13 327 283 305 220 253 253 212 233 279 257 233 265 236 248 272 335 5 3 348 37 355 252 244 239 242 266 279 271 272 272 257 267 267 267 282 295 93 67 33 282 210 163 170 161